Year,Month,Day,Hour,Minute,Value (Times are PST for temperature in C)
2015,08,18,00,00,17.30
2015,08,18,00,01,17.30
2015,08,18,00,02,17.20
2015,08,18,00,03,17.20
2015,08,18,00,04,17.20
2015,08,18,00,05,17.20
2015,08,18,00,06,17.20
2015,08,18,00,07,17.20
2015,08,18,00,08,17.10
2015,08,18,00,09,17.10
2015,08,18,00,10,17.10
2015,08,18,00,11,17.10
2015,08,18,00,12,17.10
2015,08,18,00,13,17.10
2015,08,18,00,14,17.10
2015,08,18,00,15,17.10
2015,08,18,00,16,17.10
2015,08,18,00,17,17.20
2015,08,18,00,18,17.20
2015,08,18,00,19,17.30
2015,08,18,00,20,17.30
2015,08,18,00,21,17.30
2015,08,18,00,22,17.30
2015,08,18,00,23,17.30
2015,08,18,00,24,17.30
2015,08,18,00,25,17.30
2015,08,18,00,26,17.30
2015,08,18,00,27,17.40
2015,08,18,00,28,17.30
2015,08,18,00,29,17.30
2015,08,18,00,30,17.20
2015,08,18,00,31,17.10
2015,08,18,00,32,17.10
2015,08,18,00,33,17.00
2015,08,18,00,34,16.90
2015,08,18,00,35,16.80
2015,08,18,00,36,16.80
2015,08,18,00,37,16.70
2015,08,18,00,38,16.60
2015,08,18,00,39,16.60
2015,08,18,00,40,16.50
2015,08,18,00,41,16.50
2015,08,18,00,42,16.40
2015,08,18,00,43,16.30
2015,08,18,00,44,16.20
2015,08,18,00,45,16.10
2015,08,18,00,46,16.10
2015,08,18,00,47,16.00
2015,08,18,00,48,15.90
2015,08,18,00,49,15.90
2015,08,18,00,50,15.80
2015,08,18,00,51,15.80
2015,08,18,00,52,15.70
2015,08,18,00,53,15.70
2015,08,18,00,54,15.70
2015,08,18,00,55,15.60
2015,08,18,00,56,15.60
2015,08,18,00,57,15.60
2015,08,18,00,58,15.50
2015,08,18,00,59,15.50
2015,08,18,01,00,15.50
2015,08,18,01,01,15.40
2015,08,18,01,02,15.40
2015,08,18,01,03,15.40
2015,08,18,01,04,15.40
2015,08,18,01,05,15.40
2015,08,18,01,06,15.30
2015,08,18,01,07,15.30
2015,08,18,01,08,15.30
2015,08,18,01,09,15.30
2015,08,18,01,10,15.30
2015,08,18,01,11,15.30
2015,08,18,01,12,15.30
2015,08,18,01,13,15.30
2015,08,18,01,14,15.30
2015,08,18,01,15,15.30
2015,08,18,01,16,15.30
2015,08,18,01,17,15.30
2015,08,18,01,18,15.30
2015,08,18,01,19,15.30
2015,08,18,01,20,15.40
2015,08,18,01,21,15.40
2015,08,18,01,22,15.40
2015,08,18,01,23,15.40
2015,08,18,01,24,15.40
2015,08,18,01,25,15.50
2015,08,18,01,26,15.50
2015,08,18,01,27,15.50
2015,08,18,01,28,15.50
2015,08,18,01,29,15.60
2015,08,18,01,30,15.60
2015,08,18,01,31,15.60
2015,08,18,01,32,15.70
2015,08,18,01,33,15.70
2015,08,18,01,34,15.80
2015,08,18,01,35,15.90
2015,08,18,01,36,16.00
2015,08,18,01,37,16.10
2015,08,18,01,38,16.20
2015,08,18,01,39,16.20
2015,08,18,01,40,16.30
2015,08,18,01,41,16.30
2015,08,18,01,42,16.30
2015,08,18,01,43,16.30
2015,08,18,01,44,16.30
2015,08,18,01,45,16.20
2015,08,18,01,46,16.20
2015,08,18,01,47,16.20
2015,08,18,01,48,16.20
2015,08,18,01,49,16.10
2015,08,18,01,50,16.10
2015,08,18,01,51,16.10
2015,08,18,01,52,16.10
2015,08,18,01,53,16.10
2015,08,18,01,54,16.10
2015,08,18,01,55,16.10
2015,08,18,01,56,16.00
2015,08,18,01,57,16.00
2015,08,18,01,58,16.00
2015,08,18,01,59,16.00
2015,08,18,02,00,16.00
2015,08,18,02,01,16.00
2015,08,18,02,02,16.00
2015,08,18,02,03,16.10
2015,08,18,02,04,16.10
2015,08,18,02,05,16.10
2015,08,18,02,06,16.10
2015,08,18,02,07,16.20
2015,08,18,02,08,16.30
2015,08,18,02,09,16.30
2015,08,18,02,10,16.40
2015,08,18,02,11,16.40
2015,08,18,02,12,16.50
2015,08,18,02,13,16.60
2015,08,18,02,14,16.60
2015,08,18,02,15,16.60
2015,08,18,02,16,16.70
2015,08,18,02,17,16.70
2015,08,18,02,18,16.70
2015,08,18,02,19,16.70
2015,08,18,02,20,16.70
2015,08,18,02,21,16.60
2015,08,18,02,22,16.60
2015,08,18,02,23,16.60
2015,08,18,02,24,16.60
2015,08,18,02,25,16.50
2015,08,18,02,26,16.50
2015,08,18,02,27,16.50
2015,08,18,02,28,16.50
2015,08,18,02,29,16.40
2015,08,18,02,30,16.40
2015,08,18,02,31,16.40
2015,08,18,02,32,16.40
2015,08,18,02,33,16.40
2015,08,18,02,34,16.30
2015,08,18,02,35,16.30
2015,08,18,02,36,16.30
2015,08,18,02,37,16.30
2015,08,18,02,38,16.30
2015,08,18,02,39,16.20
2015,08,18,02,40,16.20
2015,08,18,02,41,16.20
2015,08,18,02,42,16.20
2015,08,18,02,43,16.10
2015,08,18,02,44,16.10
2015,08,18,02,45,16.10
2015,08,18,02,46,16.00
2015,08,18,02,47,16.00
2015,08,18,02,48,15.90
2015,08,18,02,49,15.90
2015,08,18,02,50,15.90
2015,08,18,02,51,15.90
2015,08,18,02,52,15.80
2015,08,18,02,53,15.80
2015,08,18,02,54,15.80
2015,08,18,02,55,15.70
2015,08,18,02,56,15.70
2015,08,18,02,57,15.60
2015,08,18,02,58,15.50
2015,08,18,02,59,15.50
2015,08,18,03,00,15.50
2015,08,18,03,01,15.40
2015,08,18,03,02,15.40
2015,08,18,03,03,15.40
2015,08,18,03,04,15.40
2015,08,18,03,05,15.40
2015,08,18,03,06,15.40
2015,08,18,03,07,15.40
2015,08,18,03,08,15.50
2015,08,18,03,09,15.50
2015,08,18,03,10,15.60
2015,08,18,03,11,15.60
2015,08,18,03,12,15.70
2015,08,18,03,13,15.70
2015,08,18,03,14,15.70
2015,08,18,03,15,15.80
2015,08,18,03,16,15.80
2015,08,18,03,17,15.90
2015,08,18,03,18,15.90
2015,08,18,03,19,15.90
2015,08,18,03,20,16.00
2015,08,18,03,21,16.00
2015,08,18,03,22,15.90
2015,08,18,03,23,15.90
2015,08,18,03,24,15.90
2015,08,18,03,25,15.90
2015,08,18,03,26,15.80
2015,08,18,03,27,15.80
2015,08,18,03,28,15.80
2015,08,18,03,29,15.80
2015,08,18,03,30,15.70
2015,08,18,03,31,15.70
2015,08,18,03,32,15.70
2015,08,18,03,33,15.70
2015,08,18,03,34,15.60
2015,08,18,03,35,15.60
2015,08,18,03,36,15.60
2015,08,18,03,37,15.60
2015,08,18,03,38,15.50
2015,08,18,03,39,15.50
2015,08,18,03,40,15.50
2015,08,18,03,41,15.50
2015,08,18,03,42,15.40
2015,08,18,03,43,15.40
2015,08,18,03,44,15.40
2015,08,18,03,45,15.30
2015,08,18,03,46,15.30
2015,08,18,03,47,15.30
2015,08,18,03,48,15.30
2015,08,18,03,49,15.20
2015,08,18,03,50,15.20
2015,08,18,03,51,15.20
2015,08,18,03,52,15.20
2015,08,18,03,53,15.20
2015,08,18,03,54,15.20
2015,08,18,03,55,15.20
2015,08,18,03,56,15.20
2015,08,18,03,57,15.30
2015,08,18,03,58,15.30
2015,08,18,03,59,15.30
2015,08,18,04,00,15.40
2015,08,18,04,01,15.40
2015,08,18,04,02,15.40
2015,08,18,04,03,15.40
2015,08,18,04,04,15.40
2015,08,18,04,05,15.40
2015,08,18,04,06,15.40
2015,08,18,04,07,15.40
2015,08,18,04,08,15.40
2015,08,18,04,09,15.30
2015,08,18,04,10,15.20
2015,08,18,04,11,15.10
2015,08,18,04,12,15.10
2015,08,18,04,13,15.00
2015,08,18,04,14,14.90
2015,08,18,04,15,14.90
2015,08,18,04,16,14.80
2015,08,18,04,17,14.80
2015,08,18,04,18,14.80
2015,08,18,04,19,14.80
2015,08,18,04,20,14.80
2015,08,18,04,21,14.80
2015,08,18,04,22,14.80
2015,08,18,04,23,14.90
2015,08,18,04,24,15.00
2015,08,18,04,25,15.10
2015,08,18,04,26,15.30
2015,08,18,04,27,15.40
2015,08,18,04,28,15.50
2015,08,18,04,29,15.60
2015,08,18,04,30,15.70
2015,08,18,04,31,15.80
2015,08,18,04,32,15.90
2015,08,18,04,33,15.90
2015,08,18,04,34,16.00
2015,08,18,04,35,16.10
2015,08,18,04,36,16.10
2015,08,18,04,37,16.10
2015,08,18,04,38,16.10
2015,08,18,04,39,16.20
2015,08,18,04,40,16.20
2015,08,18,04,41,16.20
2015,08,18,04,42,16.20
2015,08,18,04,43,16.20
2015,08,18,04,44,16.20
2015,08,18,04,45,16.20
2015,08,18,04,46,16.10
2015,08,18,04,47,16.10
2015,08,18,04,48,16.10
2015,08,18,04,49,16.00
2015,08,18,04,50,16.00
2015,08,18,04,51,15.90
2015,08,18,04,52,15.90
2015,08,18,04,53,15.80
2015,08,18,04,54,15.80
2015,08,18,04,55,15.70
2015,08,18,04,56,15.70
2015,08,18,04,57,15.60
2015,08,18,04,58,15.60
2015,08,18,04,59,15.50
2015,08,18,05,00,15.50
2015,08,18,05,01,15.40
2015,08,18,05,02,15.40
2015,08,18,05,03,15.40
2015,08,18,05,04,15.40
2015,08,18,05,05,15.30
2015,08,18,05,06,15.30
2015,08,18,05,07,15.30
2015,08,18,05,08,15.30
2015,08,18,05,09,15.30
2015,08,18,05,10,15.20
2015,08,18,05,11,15.20
2015,08,18,05,12,15.20
2015,08,18,05,13,15.20
2015,08,18,05,14,15.20
2015,08,18,05,15,15.20
2015,08,18,05,16,15.30
2015,08,18,05,17,15.30
2015,08,18,05,18,15.30
2015,08,18,05,19,15.40
2015,08,18,05,20,15.40
2015,08,18,05,21,15.50
2015,08,18,05,22,15.60
2015,08,18,05,23,15.60
2015,08,18,05,24,15.70
2015,08,18,05,25,15.80
2015,08,18,05,26,15.90
2015,08,18,05,27,16.00
2015,08,18,05,28,16.20
2015,08,18,05,29,16.30
2015,08,18,05,30,16.40
2015,08,18,05,31,16.50
2015,08,18,05,32,16.60
2015,08,18,05,33,16.70
2015,08,18,05,34,16.80
2015,08,18,05,35,16.80
2015,08,18,05,36,16.90
2015,08,18,05,37,16.90
2015,08,18,05,38,17.00
2015,08,18,05,39,17.00
2015,08,18,05,40,17.10
2015,08,18,05,41,17.10
2015,08,18,05,42,17.10
2015,08,18,05,43,17.10
2015,08,18,05,44,17.10
2015,08,18,05,45,17.10
2015,08,18,05,46,17.10
2015,08,18,05,47,17.20
2015,08,18,05,48,17.10
2015,08,18,05,49,17.10
2015,08,18,05,50,17.10
2015,08,18,05,51,17.00
2015,08,18,05,52,16.80
2015,08,18,05,53,16.60
2015,08,18,05,54,16.40
2015,08,18,05,55,16.30
2015,08,18,05,56,16.10
2015,08,18,05,57,16.00
2015,08,18,05,58,15.90
2015,08,18,05,59,15.80
2015,08,18,06,00,15.70
2015,08,18,06,01,15.60
2015,08,18,06,02,15.50
2015,08,18,06,03,15.50
2015,08,18,06,04,15.40
2015,08,18,06,05,15.40
2015,08,18,06,06,15.30
2015,08,18,06,07,15.30
2015,08,18,06,08,15.30
2015,08,18,06,09,15.20
2015,08,18,06,10,15.20
2015,08,18,06,11,15.10
2015,08,18,06,12,15.00
2015,08,18,06,13,14.90
2015,08,18,06,14,14.80
2015,08,18,06,15,14.70
2015,08,18,06,16,14.60
2015,08,18,06,17,14.50
2015,08,18,06,18,14.50
2015,08,18,06,19,14.40
2015,08,18,06,20,14.40
2015,08,18,06,21,14.40
2015,08,18,06,22,14.40
2015,08,18,06,23,14.40
2015,08,18,06,24,14.30
2015,08,18,06,25,14.30
2015,08,18,06,26,14.30
2015,08,18,06,27,14.40
2015,08,18,06,28,14.40
2015,08,18,06,29,14.40
2015,08,18,06,30,14.40
2015,08,18,06,31,14.50
2015,08,18,06,32,14.60
2015,08,18,06,33,14.60
2015,08,18,06,34,14.70
2015,08,18,06,35,14.80
2015,08,18,06,36,14.90
2015,08,18,06,37,15.00
2015,08,18,06,38,15.20
2015,08,18,06,39,15.30
2015,08,18,06,40,15.40
2015,08,18,06,41,15.60
2015,08,18,06,42,15.60
2015,08,18,06,43,15.70
2015,08,18,06,44,15.70
2015,08,18,06,45,15.70
2015,08,18,06,46,15.80
2015,08,18,06,47,15.70
2015,08,18,06,48,15.70
2015,08,18,06,49,15.70
2015,08,18,06,50,15.70
2015,08,18,06,51,15.60
2015,08,18,06,52,15.50
2015,08,18,06,53,15.50
2015,08,18,06,54,15.50
2015,08,18,06,55,15.40
2015,08,18,06,56,15.40
2015,08,18,06,57,15.40
2015,08,18,06,58,15.40
2015,08,18,06,59,15.40
2015,08,18,07,00,15.50
2015,08,18,07,01,15.50
2015,08,18,07,02,15.60
2015,08,18,07,03,15.60
2015,08,18,07,04,15.60
2015,08,18,07,05,15.60
2015,08,18,07,06,15.70
2015,08,18,07,07,15.80
2015,08,18,07,08,15.90
2015,08,18,07,09,16.00
2015,08,18,07,10,16.10
2015,08,18,07,11,16.20
2015,08,18,07,12,16.30
2015,08,18,07,13,16.40
2015,08,18,07,14,16.50
2015,08,18,07,15,16.60
2015,08,18,07,16,16.80
2015,08,18,07,17,16.90
2015,08,18,07,18,17.00
2015,08,18,07,19,17.00
2015,08,18,07,20,17.10
2015,08,18,07,21,17.20
2015,08,18,07,22,17.30
2015,08,18,07,23,17.30
2015,08,18,07,24,17.40
2015,08,18,07,25,17.40
2015,08,18,07,26,17.50
2015,08,18,07,27,17.50
2015,08,18,07,28,17.60
2015,08,18,07,29,17.60
2015,08,18,07,30,17.70
2015,08,18,07,31,17.70
2015,08,18,07,32,17.80
2015,08,18,07,33,17.80
2015,08,18,07,34,17.90
2015,08,18,07,35,17.90
2015,08,18,07,36,17.90
2015,08,18,07,37,18.00
2015,08,18,07,38,18.00
2015,08,18,07,39,18.10
2015,08,18,07,40,18.10
2015,08,18,07,41,18.10
2015,08,18,07,42,18.20
2015,08,18,07,43,18.20
2015,08,18,07,44,18.30
2015,08,18,07,45,18.30
2015,08,18,07,46,18.40
2015,08,18,07,47,18.40
2015,08,18,07,48,18.40
2015,08,18,07,49,18.50
2015,08,18,07,50,18.50
2015,08,18,07,51,18.50
2015,08,18,07,52,18.50
2015,08,18,07,53,18.60
2015,08,18,07,54,18.60
2015,08,18,07,55,18.60
2015,08,18,07,56,18.70
2015,08,18,07,57,18.70
2015,08,18,07,58,18.70
2015,08,18,07,59,18.70
2015,08,18,08,00,18.70
2015,08,18,08,01,18.70
2015,08,18,08,02,18.70
2015,08,18,08,03,18.70
2015,08,18,08,04,18.80
2015,08,18,08,05,18.80
2015,08,18,08,06,18.80
2015,08,18,08,07,18.80
2015,08,18,08,08,18.90
2015,08,18,08,09,18.90
2015,08,18,08,10,18.90
2015,08,18,08,11,18.90
2015,08,18,08,12,18.90
2015,08,18,08,13,19.00
2015,08,18,08,14,19.00
2015,08,18,08,15,19.00
2015,08,18,08,16,19.00
2015,08,18,08,17,19.00
2015,08,18,08,18,19.00
2015,08,18,08,19,19.10
2015,08,18,08,20,19.10
2015,08,18,08,21,19.20
2015,08,18,08,22,19.20
2015,08,18,08,23,19.20
2015,08,18,08,24,19.20
2015,08,18,08,25,19.30
2015,08,18,08,26,19.30
2015,08,18,08,27,19.30
2015,08,18,08,28,19.30
2015,08,18,08,29,19.40
2015,08,18,08,30,19.40
2015,08,18,08,31,19.40
2015,08,18,08,32,19.40
2015,08,18,08,33,19.50
2015,08,18,08,34,19.50
2015,08,18,08,35,19.60
2015,08,18,08,36,19.60
2015,08,18,08,37,19.60
2015,08,18,08,38,19.60
2015,08,18,08,39,19.50
2015,08,18,08,40,19.60
2015,08,18,08,41,19.60
2015,08,18,08,42,19.50
2015,08,18,08,43,19.60
2015,08,18,08,44,19.60
2015,08,18,08,45,19.60
2015,08,18,08,46,19.70
2015,08,18,08,47,19.80
2015,08,18,08,48,19.80
2015,08,18,08,49,19.80
2015,08,18,08,50,19.90
2015,08,18,08,51,19.90
2015,08,18,08,52,19.90
2015,08,18,08,53,20.00
2015,08,18,08,54,20.00
2015,08,18,08,55,20.10
2015,08,18,08,56,20.20
2015,08,18,08,57,20.30
2015,08,18,08,58,20.30
2015,08,18,08,59,20.40
2015,08,18,09,00,20.40
2015,08,18,09,01,20.40
2015,08,18,09,02,20.40
2015,08,18,09,03,20.50
2015,08,18,09,04,20.50
2015,08,18,09,05,20.50
2015,08,18,09,06,20.50
2015,08,18,09,07,20.50
2015,08,18,09,08,20.50
2015,08,18,09,09,20.50
2015,08,18,09,10,20.50
2015,08,18,09,11,20.60
2015,08,18,09,12,20.60
2015,08,18,09,13,20.60
2015,08,18,09,14,20.60
2015,08,18,09,15,20.70
2015,08,18,09,16,20.80
2015,08,18,09,17,20.80
2015,08,18,09,18,20.90
2015,08,18,09,19,20.90
2015,08,18,09,20,20.90
2015,08,18,09,21,20.90
2015,08,18,09,22,20.90
2015,08,18,09,23,20.90
2015,08,18,09,24,20.90
2015,08,18,09,25,21.00
2015,08,18,09,26,21.00
2015,08,18,09,27,21.00
2015,08,18,09,28,21.10
2015,08,18,09,29,21.10
2015,08,18,09,30,21.10
2015,08,18,09,31,21.10
2015,08,18,09,32,21.10
2015,08,18,09,33,21.10
2015,08,18,09,34,21.20
2015,08,18,09,35,21.30
2015,08,18,09,36,21.30
2015,08,18,09,37,21.40
2015,08,18,09,38,21.50
2015,08,18,09,39,21.50
2015,08,18,09,40,21.50
2015,08,18,09,41,21.60
2015,08,18,09,42,21.60
2015,08,18,09,43,21.60
2015,08,18,09,44,21.60
2015,08,18,09,45,21.60
2015,08,18,09,46,21.70
2015,08,18,09,47,21.70
2015,08,18,09,48,21.70
2015,08,18,09,49,21.60
2015,08,18,09,50,21.70
2015,08,18,09,51,21.70
2015,08,18,09,52,21.70
2015,08,18,09,53,21.60
2015,08,18,09,54,21.50
2015,08,18,09,55,21.50
2015,08,18,09,56,21.40
2015,08,18,09,57,21.40
2015,08,18,09,58,21.40
2015,08,18,09,59,21.40
2015,08,18,10,00,21.40
2015,08,18,10,01,21.40
2015,08,18,10,02,21.50
2015,08,18,10,03,21.50
2015,08,18,10,04,21.60
2015,08,18,10,05,21.60
2015,08,18,10,06,21.70
2015,08,18,10,07,21.80
2015,08,18,10,08,21.80
2015,08,18,10,09,21.80
2015,08,18,10,10,21.80
2015,08,18,10,11,21.80
2015,08,18,10,12,21.80
2015,08,18,10,13,21.80
2015,08,18,10,14,21.70
2015,08,18,10,15,21.60
2015,08,18,10,16,21.50
2015,08,18,10,17,21.40
2015,08,18,10,18,21.30
2015,08,18,10,19,21.30
2015,08,18,10,20,21.20
2015,08,18,10,21,21.20
2015,08,18,10,22,21.20
2015,08,18,10,23,21.10
2015,08,18,10,24,21.10
2015,08,18,10,25,21.10
2015,08,18,10,26,21.20
2015,08,18,10,27,21.20
2015,08,18,10,28,21.30
2015,08,18,10,29,21.40
2015,08,18,10,30,21.50
2015,08,18,10,31,21.60
2015,08,18,10,32,21.70
2015,08,18,10,33,21.80
2015,08,18,10,34,21.80
2015,08,18,10,35,21.90
2015,08,18,10,36,21.90
2015,08,18,10,37,21.90
2015,08,18,10,38,22.00
2015,08,18,10,39,22.10
2015,08,18,10,40,22.10
2015,08,18,10,41,22.20
2015,08,18,10,42,22.30
2015,08,18,10,43,22.40
2015,08,18,10,44,22.40
2015,08,18,10,45,22.40
2015,08,18,10,46,22.40
2015,08,18,10,47,22.30
2015,08,18,10,48,22.30
2015,08,18,10,49,22.20
2015,08,18,10,50,22.20
2015,08,18,10,51,22.10
2015,08,18,10,52,22.10
2015,08,18,10,53,22.00
2015,08,18,10,54,21.90
2015,08,18,10,55,21.90
2015,08,18,10,56,22.00
2015,08,18,10,57,22.00
2015,08,18,10,58,22.10
2015,08,18,10,59,22.10
2015,08,18,11,00,22.10
2015,08,18,11,01,22.00
2015,08,18,11,02,22.00
2015,08,18,11,03,21.90
2015,08,18,11,04,22.00
2015,08,18,11,05,22.00
2015,08,18,11,06,22.00
2015,08,18,11,07,21.90
2015,08,18,11,08,21.80
2015,08,18,11,09,21.80
2015,08,18,11,10,21.70
2015,08,18,11,11,21.60
2015,08,18,11,12,21.50
2015,08,18,11,13,21.40
2015,08,18,11,14,21.40
2015,08,18,11,15,21.30
2015,08,18,11,16,21.30
2015,08,18,11,17,21.20
2015,08,18,11,18,21.20
2015,08,18,11,19,21.10
2015,08,18,11,20,21.10
2015,08,18,11,21,21.10
2015,08,18,11,22,21.00
2015,08,18,11,23,21.00
2015,08,18,11,24,20.90
2015,08,18,11,25,20.90
2015,08,18,11,26,20.90
2015,08,18,11,27,20.90
2015,08,18,11,28,20.90
2015,08,18,11,29,20.90
2015,08,18,11,30,20.90
2015,08,18,11,31,21.00
2015,08,18,11,32,21.00
2015,08,18,11,33,21.00
2015,08,18,11,34,21.00
2015,08,18,11,35,21.10
2015,08,18,11,36,21.10
2015,08,18,11,37,21.10
2015,08,18,11,38,21.10
2015,08,18,11,39,21.10
2015,08,18,11,40,21.10
2015,08,18,11,41,21.20
2015,08,18,11,42,21.20
2015,08,18,11,43,21.20
2015,08,18,11,44,21.20
2015,08,18,11,45,21.20
2015,08,18,11,46,21.20
2015,08,18,11,47,21.20
2015,08,18,11,48,21.20
2015,08,18,11,49,21.20
2015,08,18,11,50,21.10
2015,08,18,11,51,21.00
2015,08,18,11,52,21.00
2015,08,18,11,53,21.00
2015,08,18,11,54,21.00
2015,08,18,11,55,21.00
2015,08,18,11,56,21.00
2015,08,18,11,57,21.10
2015,08,18,11,58,21.10
2015,08,18,11,59,21.10
2015,08,18,12,00,21.00
2015,08,18,12,01,21.00
2015,08,18,12,02,21.00
2015,08,18,12,03,20.90
2015,08,18,12,04,20.90
2015,08,18,12,05,20.80
2015,08,18,12,06,20.80
2015,08,18,12,07,20.80
2015,08,18,12,08,20.80
2015,08,18,12,09,20.80
2015,08,18,12,10,20.70
2015,08,18,12,11,20.70
2015,08,18,12,12,20.70
2015,08,18,12,13,20.70
2015,08,18,12,14,20.80
2015,08,18,12,15,20.80
2015,08,18,12,16,20.90
2015,08,18,12,17,21.00
2015,08,18,12,18,21.00
2015,08,18,12,19,21.00
2015,08,18,12,20,21.00
2015,08,18,12,21,21.00
2015,08,18,12,22,21.00
2015,08,18,12,23,21.00
2015,08,18,12,24,21.10
2015,08,18,12,25,21.10
2015,08,18,12,26,21.20
2015,08,18,12,27,21.20
2015,08,18,12,28,21.20
2015,08,18,12,29,21.30
2015,08,18,12,30,21.30
2015,08,18,12,31,21.30
2015,08,18,12,32,21.30
2015,08,18,12,33,21.40
2015,08,18,12,34,21.50
2015,08,18,12,35,21.60
2015,08,18,12,36,21.70
2015,08,18,12,37,21.70
2015,08,18,12,38,21.80
2015,08,18,12,39,21.80
2015,08,18,12,40,21.80
2015,08,18,12,41,21.80
2015,08,18,12,42,21.80
2015,08,18,12,43,21.70
2015,08,18,12,44,21.70
2015,08,18,12,45,21.70
2015,08,18,12,46,21.70
2015,08,18,12,47,21.70
2015,08,18,12,48,21.70
2015,08,18,12,49,21.60
2015,08,18,12,50,21.60
2015,08,18,12,51,21.60
2015,08,18,12,52,21.60
2015,08,18,12,53,21.60
2015,08,18,12,54,21.60
2015,08,18,12,55,21.70
2015,08,18,12,56,21.70
2015,08,18,12,57,21.80
2015,08,18,12,58,21.80
2015,08,18,12,59,21.70
2015,08,18,13,00,21.60
2015,08,18,13,01,21.60
2015,08,18,13,02,21.60
2015,08,18,13,03,21.60
2015,08,18,13,04,21.60
2015,08,18,13,05,21.60
2015,08,18,13,06,21.50
2015,08,18,13,07,21.60
2015,08,18,13,08,21.60
2015,08,18,13,09,21.60
2015,08,18,13,10,21.70
2015,08,18,13,11,21.70
2015,08,18,13,12,21.80
2015,08,18,13,13,21.80
2015,08,18,13,14,21.90
2015,08,18,13,15,21.90
2015,08,18,13,16,22.00
2015,08,18,13,17,22.00
2015,08,18,13,18,22.00
2015,08,18,13,19,22.00
2015,08,18,13,20,22.10
2015,08,18,13,21,22.00
2015,08,18,13,22,22.00
2015,08,18,13,23,21.90
2015,08,18,13,24,21.90
2015,08,18,13,25,21.90
2015,08,18,13,26,22.00
2015,08,18,13,27,22.00
2015,08,18,13,28,22.10
2015,08,18,13,29,22.20
2015,08,18,13,30,22.20
2015,08,18,13,31,22.20
2015,08,18,13,32,22.10
2015,08,18,13,33,22.10
2015,08,18,13,34,22.00
2015,08,18,13,35,22.00
2015,08,18,13,36,22.00
2015,08,18,13,37,22.00
2015,08,18,13,38,22.10
2015,08,18,13,39,22.10
2015,08,18,13,40,22.20
2015,08,18,13,41,22.20
2015,08,18,13,42,22.20
2015,08,18,13,43,22.20
2015,08,18,13,44,22.20
2015,08,18,13,45,22.20
2015,08,18,13,46,22.20
2015,08,18,13,47,22.20
2015,08,18,13,48,22.20
2015,08,18,13,49,22.20
2015,08,18,13,50,22.20
2015,08,18,13,51,22.20
2015,08,18,13,52,22.30
2015,08,18,13,53,22.30
2015,08,18,13,54,22.20
2015,08,18,13,55,22.20
2015,08,18,13,56,22.20
2015,08,18,13,57,22.30
2015,08,18,13,58,22.40
2015,08,18,13,59,22.40
2015,08,18,14,00,22.50
2015,08,18,14,01,22.50
2015,08,18,14,02,22.50
2015,08,18,14,03,22.60
2015,08,18,14,04,22.60
2015,08,18,14,05,22.60
2015,08,18,14,06,22.70
2015,08,18,14,07,22.70
2015,08,18,14,08,22.80
2015,08,18,14,09,22.90
2015,08,18,14,10,22.90
2015,08,18,14,11,23.00
2015,08,18,14,12,23.10
2015,08,18,14,13,23.20
2015,08,18,14,14,23.30
2015,08,18,14,15,23.30
2015,08,18,14,16,23.30
2015,08,18,14,17,23.30
2015,08,18,14,18,23.20
2015,08,18,14,19,23.10
2015,08,18,14,20,23.10
2015,08,18,14,21,23.00
2015,08,18,14,22,22.90
2015,08,18,14,23,22.80
2015,08,18,14,24,22.80
2015,08,18,14,25,22.80
2015,08,18,14,26,22.70
2015,08,18,14,27,22.70
2015,08,18,14,28,22.70
2015,08,18,14,29,22.70
2015,08,18,14,30,22.70
2015,08,18,14,31,22.80
2015,08,18,14,32,22.80
2015,08,18,14,33,22.80
2015,08,18,14,34,22.80
2015,08,18,14,35,22.70
2015,08,18,14,36,22.70
2015,08,18,14,37,22.70
2015,08,18,14,38,22.80
2015,08,18,14,39,22.80
2015,08,18,14,40,22.80
2015,08,18,14,41,22.80
2015,08,18,14,42,22.90
2015,08,18,14,43,22.90
2015,08,18,14,44,22.90
2015,08,18,14,45,22.90
2015,08,18,14,46,22.90
2015,08,18,14,47,22.80
2015,08,18,14,48,22.80
2015,08,18,14,49,22.80
2015,08,18,14,50,22.70
2015,08,18,14,51,22.70
2015,08,18,14,52,22.70
2015,08,18,14,53,22.60
2015,08,18,14,54,22.60
2015,08,18,14,55,22.70
2015,08,18,14,56,22.70
2015,08,18,14,57,22.70
2015,08,18,14,58,22.80
2015,08,18,14,59,22.80
2015,08,18,15,00,22.90
2015,08,18,15,01,22.90
2015,08,18,15,02,23.00
2015,08,18,15,03,23.10
2015,08,18,15,04,23.20
2015,08,18,15,05,23.20
2015,08,18,15,06,23.30
2015,08,18,15,07,23.30
2015,08,18,15,08,23.40
2015,08,18,15,09,23.40
2015,08,18,15,10,23.40
2015,08,18,15,11,23.50
2015,08,18,15,12,23.50
2015,08,18,15,13,23.50
2015,08,18,15,14,23.60
2015,08,18,15,15,23.50
2015,08,18,15,16,23.50
2015,08,18,15,17,23.50
2015,08,18,15,18,23.50
2015,08,18,15,19,23.50
2015,08,18,15,20,23.50
2015,08,18,15,21,23.60
2015,08,18,15,22,23.60
2015,08,18,15,23,23.70
2015,08,18,15,24,23.80
2015,08,18,15,25,23.80
2015,08,18,15,26,23.90
2015,08,18,15,27,23.90
2015,08,18,15,28,24.00
2015,08,18,15,29,24.00
2015,08,18,15,30,24.00
2015,08,18,15,31,24.00
2015,08,18,15,32,24.10
2015,08,18,15,33,24.10
2015,08,18,15,34,24.10
2015,08,18,15,35,24.10
2015,08,18,15,36,24.20
2015,08,18,15,37,24.20
2015,08,18,15,38,24.20
2015,08,18,15,39,24.30
2015,08,18,15,40,24.30
2015,08,18,15,41,24.30
2015,08,18,15,42,24.30
2015,08,18,15,43,24.30
2015,08,18,15,44,24.30
2015,08,18,15,45,24.40
2015,08,18,15,46,24.40
2015,08,18,15,47,24.40
2015,08,18,15,48,24.50
2015,08,18,15,49,24.60
2015,08,18,15,50,24.60
2015,08,18,15,51,24.70
2015,08,18,15,52,24.70
2015,08,18,15,53,24.70
2015,08,18,15,54,24.60
2015,08,18,15,55,24.60
2015,08,18,15,56,24.50
2015,08,18,15,57,24.40
2015,08,18,15,58,24.30
2015,08,18,15,59,24.30
2015,08,18,16,00,24.30
2015,08,18,16,01,24.30
2015,08,18,16,02,24.30
2015,08,18,16,03,24.30
2015,08,18,16,04,24.30
2015,08,18,16,05,24.30
2015,08,18,16,06,24.30
2015,08,18,16,07,24.30
2015,08,18,16,08,24.30
2015,08,18,16,09,24.30
2015,08,18,16,10,24.30
2015,08,18,16,11,24.30
2015,08,18,16,12,24.30
2015,08,18,16,13,24.40
2015,08,18,16,14,24.40
2015,08,18,16,15,24.50
2015,08,18,16,16,24.50
2015,08,18,16,17,24.60
2015,08,18,16,18,24.70
2015,08,18,16,19,24.80
2015,08,18,16,20,24.80
2015,08,18,16,21,24.90
2015,08,18,16,22,24.90
2015,08,18,16,23,24.90
2015,08,18,16,24,24.90
2015,08,18,16,25,24.90
2015,08,18,16,26,25.00
2015,08,18,16,27,25.10
2015,08,18,16,28,25.10
2015,08,18,16,29,25.20
2015,08,18,16,30,25.20
2015,08,18,16,31,25.30
2015,08,18,16,32,25.30
2015,08,18,16,33,25.30
2015,08,18,16,34,25.40
2015,08,18,16,35,25.50
2015,08,18,16,36,25.60
2015,08,18,16,37,25.60
2015,08,18,16,38,25.60
2015,08,18,16,39,25.60
2015,08,18,16,40,25.60
2015,08,18,16,41,25.60
2015,08,18,16,42,25.60
2015,08,18,16,43,25.50
2015,08,18,16,44,25.50
2015,08,18,16,45,25.50
2015,08,18,16,46,25.50
2015,08,18,16,47,25.40
2015,08,18,16,48,25.40
2015,08,18,16,49,25.40
2015,08,18,16,50,25.40
2015,08,18,16,51,25.40
2015,08,18,16,52,25.50
2015,08,18,16,53,25.50
2015,08,18,16,54,25.50
2015,08,18,16,55,25.50
2015,08,18,16,56,25.50
2015,08,18,16,57,25.60
2015,08,18,16,58,25.60
2015,08,18,16,59,25.60
2015,08,18,17,00,25.60
2015,08,18,17,01,25.70
2015,08,18,17,02,25.80
2015,08,18,17,03,25.80
2015,08,18,17,04,26.00
2015,08,18,17,05,26.10
2015,08,18,17,06,26.20
2015,08,18,17,07,26.40
2015,08,18,17,08,26.50
2015,08,18,17,09,26.60
2015,08,18,17,10,26.70
2015,08,18,17,11,26.70
2015,08,18,17,12,26.70
2015,08,18,17,13,26.70
2015,08,18,17,14,26.70
2015,08,18,17,15,26.70
2015,08,18,17,16,26.60
2015,08,18,17,17,26.50
2015,08,18,17,18,26.40
2015,08,18,17,19,26.20